• Em Portugal
  • Lista de países
  • Para 7 dias
  • Temperatura da água
  • Mapas de satélite
  • Mapa do tempo
  • Widgets de tempo
  • user-avatar
    Iniciar Sessão

    Previsão horária em Córdoba

    Hoje, 21 Setembro, Sexta-feira

    Tempo Temperatura Precipitação Vento Pressão Humidade
    00:00 +17°C° 0 mm 2 m/s 721 mmHg 67%
    01:00 +17°C° 0 mm 2 m/s 721 mmHg 70%
    02:00 +17°C° 0 mm 2 m/s 721 mmHg 78%
    03:00 +17°C° 0 mm 2 m/s 721 mmHg 79%
    04:00 +17°C° 0 mm 2 m/s 721 mmHg 80%
    05:00 +17°C° 0 mm 2 m/s 721 mmHg 82%
    06:00 +18°C° 0 mm 2 m/s 721 mmHg 76%
    07:00 +20°C° 0 mm 2 m/s 721 mmHg 71%
    08:00 +23°C° 0 mm 2 m/s 722 mmHg 60%
    09:00 +25°C° 0 mm 2 m/s 722 mmHg 53%
    10:00 +27°C° 0 mm 3 m/s 722 mmHg 46%
    11:00 +30°C° 0 mm 3 m/s 722 mmHg 38%
    12:00 +32°C° 0 mm 4 m/s 721 mmHg 37%
    13:00 +33°C° 0 mm 4 m/s 721 mmHg 35%
    14:00 +34°C° 0 mm 5 m/s 720 mmHg 33%
    15:00 +34°C° 0 mm 5 m/s 720 mmHg 36%
    16:00 +33°C° 0 mm 5 m/s 719 mmHg 39%
    17:00 +33°C° 0 mm 6 m/s 718 mmHg 41%
    18:00 +30°C° 0 mm 5 m/s 718 mmHg 48%
    19:00 +28°C° 0 mm 5 m/s 719 mmHg 54%
    20:00 +26°C° 0 mm 4 m/s 719 mmHg 60%
    21:00 +26°C° 0 mm 4 m/s 719 mmHg 63%
    22:00 +25°C° 0 mm 4 m/s 719 mmHg 65%
    23:00 +25°C° 0 mm 4 m/s 719 mmHg 68%

    Amanhã, 22 Setembro, Sábado

    Tempo Temperatura Precipitação Vento Pressão Humidade
    00:00 +25°C° 0 mm 4 m/s 718 mmHg 70%
    01:00 +25°C° 0 mm 4 m/s 718 mmHg 71%
    02:00 +23°C° 0 mm 4 m/s 717 mmHg 73%
    03:00 +23°C° 0 mm 4 m/s 717 mmHg 74%
    04:00 +23°C° 0 mm 4 m/s 717 mmHg 76%
    05:00 +23°C° 0 mm 5 m/s 717 mmHg 77%
    06:00 +26°C° 0 mm 5 m/s 717 mmHg 71%
    07:00 +27°C° 0 mm 6 m/s 717 mmHg 66%
    08:00 +29°C° 0 mm 7 m/s 717 mmHg 60%
    09:00 +32°C° 0 mm 8 m/s 717 mmHg 52%
    10:00 +34°C° 0 mm 8 m/s 717 mmHg 44%
    11:00 +38°C° 0 mm 8 m/s 717 mmHg 36%
    12:00 +39°C° 0 mm 7 m/s 716 mmHg 33%
    13:00 +40°C° 0 mm 7 m/s 716 mmHg 29%
    14:00 +41°C° 0 mm 6 m/s 715 mmHg 25%
    15:00 +40°C° 0 mm 5 m/s 715 mmHg 25%
    16:00 +40°C° 0 mm 5 m/s 714 mmHg 25%
    17:00 +38°C° 0 mm 4 m/s 714 mmHg 26%
    18:00 +36°C° 0 mm 4 m/s 714 mmHg 30%
    19:00 +33°C° 0 mm 3 m/s 715 mmHg 35%
    20:00 +30°C° 0 mm 3 m/s 715 mmHg 40%
    21:00 +29°C° 0 mm 4 m/s 716 mmHg 47%
    22:00 +28°C° 0 mm 5 m/s 716 mmHg 55%
    23:00 +26°C° 0 mm 6 m/s 717 mmHg 63%

    Depois de amanhã, 23 Setembro, Domingo

    Tempo Temperatura Precipitação Vento Pressão Humidade
    00:00 +24°C° 0 mm 6 m/s 717 mmHg 70%
    01:00 +23°C° 0 mm 6 m/s 717 mmHg 76%
    02:00 +22°C° 0 mm 5 m/s 717 mmHg 83%
    03:00 +21°C° 0 mm 5 m/s 717 mmHg 82%
    04:00 +21°C° 0 mm 5 m/s 717 mmHg 82%
    05:00 +20°C° 0 mm 5 m/s 717 mmHg 81%
    06:00 +20°C° 0 mm 5 m/s 717 mmHg 79%
    07:00 +20°C° 0 mm 5 m/s 718 mmHg 76%
    08:00 +20°C° 0 mm 5 m/s 718 mmHg 73%
    09:00 +22°C° 0 mm 5 m/s 719 mmHg 64%
    10:00 +25°C° 0 mm 5 m/s 719 mmHg 55%
    11:00 +27°C° 0 mm 5 m/s 720 mmHg 46%
    12:00 +28°C° 0 mm 5 m/s 719 mmHg 46%
    13:00 +28°C° 0 mm 6 m/s 719 mmHg 45%
    14:00 +29°C° 0 mm 6 m/s 719 mmHg 44%
    15:00 +28°C° 0 mm 6 m/s 719 mmHg 47%
    16:00 +27°C° 0 mm 6 m/s 719 mmHg 50%
    17:00 +26°C° 0 mm 6 m/s 719 mmHg 53%
    18:00 +23°C° 0 mm 5 m/s 720 mmHg 55%
    19:00 +22°C° 0 mm 5 m/s 721 mmHg 56%
    20:00 +21°C° 0 mm 4 m/s 722 mmHg 57%
    21:00 +20°C° 0 mm 5 m/s 722 mmHg 57%
    22:00 +19°C° 0 mm 5 m/s 723 mmHg 57%
    23:00 +17°C° 0 mm 5 m/s 724 mmHg 56%

    24 Setembro, Segunda-feira

    Tempo Temperatura Precipitação Vento Pressão Humidade
    00:00 +17°C° 0 mm 4 m/s 724 mmHg 56%
    01:00 +15°C° 0 mm 4 m/s 724 mmHg 56%
    02:00 +14°C° 0 mm 4 m/s 724 mmHg 57%
    03:00 +14°C° 0 mm 4 m/s 724 mmHg 57%
    04:00 +13°C° 0 mm 4 m/s 724 mmHg 58%
    05:00 +13°C° 0 mm 4 m/s 724 mmHg 58%
    06:00 +13°C° 0 mm 4 m/s 725 mmHg 54%
    07:00 +14°C° 0 mm 3 m/s 725 mmHg 50%
    08:00 +16°C° 0 mm 3 m/s 726 mmHg 45%
    09:00 +18°C° 0 mm 3 m/s 726 mmHg 41%
    10:00 +20°C° 0 mm 3 m/s 726 mmHg 37%
    11:00 +21°C° 0 mm 4 m/s 726 mmHg 33%
    12:00 +22°C° 0 mm 4 m/s 725 mmHg 32%
    13:00 +23°C° 0 mm 4 m/s 725 mmHg 30%
    14:00 +25°C° 0 mm 4 m/s 724 mmHg 29%
    15:00 +25°C° 0 mm 4 m/s 724 mmHg 30%
    16:00 +23°C° 0 mm 4 m/s 723 mmHg 31%
    17:00 +23°C° 0 mm 4 m/s 723 mmHg 32%
    18:00 +21°C° 0 mm 3 m/s 723 mmHg 36%
    19:00 +20°C° 0 mm 3 m/s 723 mmHg 41%
    20:00 +18°C° 0 mm 2 m/s 724 mmHg 45%
    21:00 +17°C° 0 mm 2 m/s 724 mmHg 48%
    22:00 +18°C° 0 mm 1 m/s 724 mmHg 50%
    23:00 +16°C° 0 mm 1 m/s 724 mmHg 52%

    25 Setembro, Terça-feira

    Tempo Temperatura Precipitação Vento Pressão Humidade
    00:00 +16°C° 0 mm 1 m/s 723 mmHg 55%
    01:00 +16°C° 0 mm 1 m/s 723 mmHg 57%
    02:00 +15°C° 0 mm 1 m/s 722 mmHg 60%
    03:00 +15°C° 0 mm 1 m/s 722 mmHg 62%
    04:00 +14°C° 0 mm 1 m/s 722 mmHg 65%
    05:00 +14°C° 0 mm 1 m/s 722 mmHg 68%
    06:00 +15°C° 0 mm 1 m/s 722 mmHg 65%
    07:00 +16°C° 0 mm 1 m/s 722 mmHg 63%
    08:00 +18°C° 0 mm 1 m/s 723 mmHg 60%
    09:00 +19°C° 0 mm 2 m/s 722 mmHg 55%
    10:00 +23°C° 0 mm 2 m/s 722 mmHg 49%
    11:00 +25°C° 0 mm 2 m/s 722 mmHg 44%
    12:00 +26°C° 0 mm 2 m/s 722 mmHg 43%
    13:00 +27°C° 0 mm 3 m/s 721 mmHg 42%
    14:00 +27°C° 0 mm 3 m/s 721 mmHg 40%
    15:00 +27°C° 0 mm 3 m/s 720 mmHg 43%
    16:00 +26°C° 0 mm 4 m/s 720 mmHg 46%
    17:00 +26°C° 0 mm 4 m/s 719 mmHg 49%
    18:00 +24°C° 0 mm 3 m/s 720 mmHg 59%
    19:00 +21°C° 0 mm 3 m/s 720 mmHg 69%
    20:00 +19°C° 0 mm 2 m/s 720 mmHg 79%
    21:00 +19°C° 0 mm 2 m/s 720 mmHg 82%
    22:00 +19°C° 0 mm 1 m/s 721 mmHg 85%
    23:00 +19°C° 0 mm 1 m/s 721 mmHg 88%

    26 Setembro, Quarta-feira

    Tempo Temperatura Precipitação Vento Pressão Humidade
    00:00 +19°C° 0 mm 1 m/s 720 mmHg 89%
    01:00 +18°C° 0 mm 1 m/s 720 mmHg 91%
    02:00 +18°C° 0 mm 1 m/s 720 mmHg 92%
    03:00 +18°C° 0 mm 1 m/s 720 mmHg 92%
    04:00 +16°C° 0 mm 1 m/s 719 mmHg 92%
    05:00 +16°C° 0 mm 1 m/s 719 mmHg 93%
    06:00 +18°C° 0 mm 1 m/s 720 mmHg 89%
    07:00 +18°C° 0 mm 1 m/s 720 mmHg 86%
    08:00 +18°C° 0 mm 2 m/s 721 mmHg 83%
    09:00 +19°C° 0 mm 2 m/s 720 mmHg 79%
    10:00 +20°C° 0 mm 2 m/s 720 mmHg 75%
    11:00 +20°C° 0 mm 2 m/s 720 mmHg 71%
    12:00 +21°C° 0 mm 3 m/s 720 mmHg 68%
    13:00 +22°C° 0 mm 3 m/s 719 mmHg 64%
    14:00 +22°C° 0 mm 3 m/s 719 mmHg 61%
    15:00 +22°C° 0 mm 3 m/s 718 mmHg 61%
    16:00 +22°C° 0 mm 3 m/s 718 mmHg 61%
    17:00 +22°C° 0 mm 3 m/s 718 mmHg 61%
    18:00 +21°C° 0 mm 3 m/s 718 mmHg 67%
    19:00 +20°C° 0 mm 3 m/s 719 mmHg 73%
    20:00 +18°C° 0 mm 3 m/s 719 mmHg 79%
    21:00 +18°C° 0 mm 2 m/s 720 mmHg 80%
    22:00 +18°C° 0 mm 2 m/s 720 mmHg 81%
    23:00 +18°C° 0 mm 2 m/s 720 mmHg 82%
    Mostrar mais